Stations météo

Publicité
Socoa, France (7600): Température de l'air & dewpoint: 20.03.2017 09:00:00 - 26.03.2017 09:00:00 (CEST)Socoa, France (7600): Vitesse du vent & gusts: 20.03.2017 09:00:00 - 26.03.2017 09:00:00 (CEST)Socoa, France (7600): Direction du vent: 20.03.2017 09:00:00 - 26.03.2017 09:00:00 (CEST)Socoa, France (7600): reduced air pressure: 20.03.2017 09:00:00 - 26.03.2017 09:00:00 (CEST)Socoa, France (7600): visibility: 20.03.2017 09:00:00 - 26.03.2017 09:00:00 (CEST)Socoa, France (7600): Quantités de précipitations: 20.03.2017 09:00:00 - 26.03.2017 09:00:00 (CEST)
Date & Time tt [°C] td [°C] ff [km/h] ff [knt] fx [km/h] fx [knt] dd ppp [hPa] vv [km] rr [mm]
26.03.2017 09:00:00 11,8 4,7 16 9 29 16 S 1015,7 - 0,0
26.03.2017 08:00:00 11,3 4,5 10 5 28 15 ESE 1014,8 20 0,0
26.03.2017 07:00:00 11,1 3,9 9 5 24 13 S 1014,0 - 0,0
26.03.2017 06:00:00 11,9 3,9 21 11 33 18 S 1013,5 - 0,0
26.03.2017 05:00:00 11,5 3,3 8 5 34 18 ESE 1014,0 20 0,0
26.03.2017 04:00:00 11,6 2,9 6 4 27 15 S 1014,0 - 0,0
26.03.2017 03:00:00 9,9 2,7 4 2 26 14 S 1014,1 - 0,0
26.03.2017 02:00:00 10,6 3,4 5 3 27 15 ESE 1014,5 - 0,0
26.03.2017 01:00:00 9,7 3,0 5 3 44 24 S 1014,4 - 0,0
26.03.2017 00:00:00 9,7 2,8 20 11 41 22 S 1013,8 - 0,0
25.03.2017 23:00:00 8,4 2,2 18 10 36 19 S 1013,9 - 0,0
25.03.2017 22:00:00 9,1 2,2 22 12 41 22 S 1013,2 - 0,0
25.03.2017 21:00:00 8,4 2,2 23 13 45 24 S 1012,4 - 0,0
25.03.2017 20:00:00 8,3 1,7 26 14 46 25 S 1011,8 - 0,0
25.03.2017 19:00:00 8,1 2,7 27 15 56 31 SSW 1010,7 - 0,0
25.03.2017 18:00:00 7,7 3,5 37 20 54 29 S 1010,6 - 0,4
25.03.2017 17:00:00 7,5 4,3 28 15 47 26 S 1010,7 - 1,2
25.03.2017 16:00:00 8,1 6,1 34 18 53 29 S 1010,3 - 0,8
25.03.2017 15:00:00 11,0 9,6 6 3 13 7 ESE 1009,8 - 0,2
25.03.2017 14:00:00 10,2 9,1 7 4 12 6 ESE 1009,9 - 0,0
25.03.2017 13:00:00 9,8 9,2 6 3 15 8 SSW 1010,2 - 0,2
25.03.2017 12:00:00 9,1 8,2 11 6 16 8 SW 1010,5 - 0,4
25.03.2017 11:00:00 9,0 7,9 4 2 23 13 WNW 1010,8 - 0,2
25.03.2017 10:00:00 9,0 8,1 11 6 19 11 N 1011,1 - 1,0
25.03.2017 09:00:00 8,8 7,6 12 7 28 15 N 1011,5 - 1,2
25.03.2017 08:00:00 8,7 7,3 16 8 35 19 N 1012,2 15 0,0
25.03.2017 07:00:00 8,9 8,0 18 10 29 16 NW 1012,6 - 0,4
25.03.2017 06:00:00 8,5 5,6 8 4 28 15 W 1013,2 - 0,0
25.03.2017 05:00:00 8,0 6,0 9 5 15 8 WSW 1014,0 20 0,0
25.03.2017 04:00:00 8,0 6,0 9 5 18 10 SSW 1015,2 - 0,0
25.03.2017 03:00:00 8,3 5,8 8 4 26 14 SSE 1016,1 - 0,8
25.03.2017 02:00:00 9,4 6,1 5 3 10 5 ESE 1016,4 - 0,2
25.03.2017 01:00:00 9,5 5,7 3 1 13 7 SSE 1016,4 - 0,0
25.03.2017 00:00:00 9,3 5,1 7 4 16 9 SW 1016,4 - 0,0
24.03.2017 23:00:00 9,6 5,2 9 5 12 7 SW 1017,0 - 0,0
24.03.2017 22:00:00 10,8 5,7 5 3 19 10 ENE 1017,3 - 0,0
24.03.2017 21:00:00 10,8 4,9 11 6 19 10 NE 1017,4 - 0,0
24.03.2017 20:00:00 11,1 5,0 14 7 29 16 NE 1017,2 18 0,0
24.03.2017 19:00:00 11,6 3,6 21 11 30 16 NE 1017,0 - 0,0
24.03.2017 18:00:00 12,4 4,8 24 13 36 19 NNE 1017,0 - 0,0
24.03.2017 17:00:00 13,5 5,6 25 14 37 20 NE 1017,1 - 0,0
24.03.2017 16:00:00 13,6 4,5 23 13 31 17 NE 1016,7 - 0,0
24.03.2017 15:00:00 14,8 5,3 16 8 25 13 NE 1017,1 - 0,0
24.03.2017 14:00:00 13,0 4,4 16 9 25 14 NNE 1017,5 - 0,0
24.03.2017 13:00:00 12,7 3,9 11 6 15 8 NNE 1017,8 - 0,0
24.03.2017 12:00:00 10,7 3,0 5 3 27 14 NE 1017,6 - 0,0
24.03.2017 11:00:00 9,2 3,4 5 3 41 22 SE 1016,9 15 0,0
24.03.2017 10:00:00 8,8 2,8 17 9 32 17 S 1016,6 - 0,0
24.03.2017 09:00:00 8,1 2,5 15 8 32 18 S 1016,0 - 0,0
24.03.2017 08:00:00 7,8 2,7 18 10 61 33 SSW 1015,5 15 0,2
24.03.2017 07:00:00 6,9 0,8 12 6 19 11 S 1014,6 - 0,0
24.03.2017 06:00:00 7,7 0,6 10 6 20 11 SSE 1014,3 - 0,0
24.03.2017 05:00:00 7,8 1,6 13 7 25 14 SE 1014,0 15 0,0
24.03.2017 04:00:00 6,4 0,5 8 5 16 8 S 1013,9 - 0,0
24.03.2017 03:00:00 7,5 1,1 13 7 22 12 ESE 1014,0 - 0,0
24.03.2017 02:00:00 7,2 1,3 11 6 26 14 SSW 1013,4 20 0,0
24.03.2017 01:00:00 6,8 3,0 10 5 15 8 E 1013,4 - 0,0
24.03.2017 00:00:00 6,8 2,7 2 1 10 5 E 1013,2 - 0,0
23.03.2017 23:00:00 6,9 2,2 3 2 11 6 NNW 1012,9 20 0,0
23.03.2017 22:00:00 7,6 2,1 8 4 14 8 SE 1012,3 - 0,0
23.03.2017 21:00:00 8,7 2,0 5 3 24 13 SSE 1011,3 - 0,0
23.03.2017 20:00:00 9,7 2,1 14 8 24 13 NE 1010,5 20 0,0
23.03.2017 19:00:00 11,1 2,1 17 9 22 12 NE 1009,9 - 0,0
23.03.2017 18:00:00 11,7 2,9 12 6 19 11 NE 1009,7 - 0,0
23.03.2017 17:00:00 10,6 1,4 14 8 21 12 NNE 1009,7 20 0,0
23.03.2017 16:00:00 10,6 1,1 12 7 23 13 N 1009,7 - 0,0
23.03.2017 15:00:00 12,2 1,2 12 7 24 13 N 1009,8 - 0,0
23.03.2017 14:00:00 12,4 1,7 16 8 26 14 NNW 1010,0 25 0,0
23.03.2017 13:00:00 12,4 2,3 14 8 27 15 W 1010,3 - 0,0
23.03.2017 12:00:00 9,8 0,7 21 11 31 17 W 1010,3 - 0,0
23.03.2017 11:00:00 10,4 1,5 13 7 24 13 SW 1010,3 - 0,0
23.03.2017 10:00:00 8,1 2,5 9 5 27 14 SW 1010,0 - 0,0
23.03.2017 09:00:00 4,3 2,5 18 10 27 15 S 1009,5 - 0,0
23.03.2017 08:00:00 3,4 2,2 16 9 22 12 SSW 1009,2 15 0,0
23.03.2017 07:00:00 3,5 2,5 13 7 16 9 S 1008,9 - 0,0
23.03.2017 06:00:00 4,0 2,7 8 5 11 6 SSW 1009,3 - 0,0
23.03.2017 05:00:00 5,1 3,3 4 2 19 10 SSE 1009,5 15 0,2
23.03.2017 04:00:00 5,4 3,7 15 8 41 22 SW 1010,2 - 0,2
23.03.2017 03:00:00 6,9 4,9 36 19 46 25 W 1010,3 - 0,6
23.03.2017 02:00:00 7,2 6,3 26 14 46 25 WNW 1010,5 8 1,4
23.03.2017 01:00:00 6,8 5,9 9 5 16 9 SW 1010,5 - 0,6
23.03.2017 00:00:00 7,1 6,0 6 3 36 19 SSW 1010,3 - 1,6
22.03.2017 23:00:00 6,8 5,6 35 19 59 32 NW 1010,0 12 4,9
22.03.2017 22:00:00 7,8 6,9 10 5 16 9 ESE 1009,2 - 0,3
22.03.2017 21:00:00 8,0 7,1 9 5 14 8 ESE 1009,2 - 0,2
22.03.2017 20:00:00 8,1 7,2 11 6 21 12 ESE 1009,3 - 2,0
22.03.2017 19:00:00 8,0 7,1 8 4 33 18 SW 1009,5 - 2,2
22.03.2017 18:00:00 8,3 7,1 25 14 59 32 W 1009,6 - 7,9
22.03.2017 17:00:00 10,3 6,4 22 12 41 22 N 1008,7 18 0,0
22.03.2017 16:00:00 11,6 6,7 11 6 28 15 N 1009,2 - 0,0
22.03.2017 15:00:00 11,0 7,3 23 12 32 17 NNW 1010,6 - 0,0
22.03.2017 14:00:00 13,5 4,4 8 4 26 14 W 1010,7 25 0,0
22.03.2017 13:00:00 11,9 4,1 22 12 48 26 WSW 1011,7 - 0,2
22.03.2017 12:00:00 13,7 2,3 17 9 27 15 SW 1011,3 - 0,0
22.03.2017 11:00:00 13,2 4,9 7 4 36 19 WSW 1011,3 25 0,0
22.03.2017 10:00:00 10,4 2,7 23 12 38 21 S 1010,9 - 0,0
22.03.2017 09:00:00 9,5 2,8 22 12 36 20 S 1010,8 - 0,0
22.03.2017 08:00:00 8,6 3,4 23 12 37 20 S 1011,2 15 0,0
22.03.2017 07:00:00 6,4 4,1 12 6 21 11 S 1012,0 - 0,0
22.03.2017 06:00:00 7,2 4,2 7 4 23 12 S 1012,7 - 0,0
22.03.2017 05:00:00 7,3 4,9 10 5 30 16 S 1013,7 - 0,0
22.03.2017 04:00:00 8,2 4,6 18 10 30 16 S 1014,8 - 0,0
22.03.2017 03:00:00 7,9 6,0 16 9 27 14 S 1016,1 - 0,0
22.03.2017 02:00:00 7,4 6,5 13 7 18 10 S 1017,3 20 0,0
22.03.2017 01:00:00 7,5 6,6 11 6 13 7 S 1018,2 - 0,0
22.03.2017 00:00:00 7,8 7,0 11 6 15 8 S 1018,9 - 0,0
21.03.2017 23:00:00 8,2 7,4 9 5 11 6 S 1019,4 20 0,0
21.03.2017 22:00:00 8,4 7,5 9 5 14 7 SSW 1019,3 - 0,0
21.03.2017 21:00:00 9,0 7,9 11 6 14 8 S 1019,3 - 0,0
21.03.2017 20:00:00 9,6 8,4 4 2 30 16 W 1019,8 15 0,4
21.03.2017 19:00:00 10,0 8,4 22 12 31 17 NW 1019,4 - 0,2
21.03.2017 18:00:00 10,0 8,3 20 11 40 21 NW 1019,3 - 0,4
21.03.2017 17:00:00 10,6 8,9 20 11 35 19 NW 1019,1 - 0,4
21.03.2017 16:00:00 10,6 8,5 23 12 40 22 NW 1019,3 - 0,4
21.03.2017 15:00:00 10,3 8,6 35 19 49 26 NNW 1019,7 - 0,4
21.03.2017 14:00:00 9,9 9,1 42 23 63 34 NNW 1019,6 - 1,6
21.03.2017 13:00:00 11,1 9,5 38 20 61 33 NNW 1018,5 - 0,0
21.03.2017 12:00:00 11,7 10,3 36 19 49 27 W 1017,6 - 0,4
21.03.2017 11:00:00 13,1 7,1 20 11 29 16 W 1017,5 - 0,0
21.03.2017 10:00:00 12,2 6,5 13 7 21 11 SW 1017,3 - 0,0
21.03.2017 09:00:00 11,0 5,7 11 6 17 9 SW 1017,2 - 0,0
21.03.2017 08:00:00 10,3 5,5 12 6 16 8 SW 1017,0 15 0,0
21.03.2017 07:00:00 10,4 5,6 11 6 14 8 SW 1017,1 - 0,0
21.03.2017 06:00:00 10,4 5,6 11 6 14 7 SSW 1017,1 - 0,0
21.03.2017 05:00:00 10,4 5,8 10 6 14 8 SSW 1017,6 - 0,0
21.03.2017 04:00:00 10,7 6,1 11 6 16 9 SW 1018,1 - 0,0
21.03.2017 03:00:00 10,8 6,2 10 6 17 9 SW 1018,6 - 0,0
21.03.2017 02:00:00 10,9 6,6 11 6 15 8 SSW 1019,1 12 0,0
21.03.2017 01:00:00 10,9 7,0 11 6 17 9 SW 1019,5 - 0,0
21.03.2017 00:00:00 10,9 7,2 10 5 18 10 SW 1019,9 - 0,0
20.03.2017 23:00:00 10,7 7,9 13 7 19 10 SW 1019,9 12 0,0
20.03.2017 22:00:00 10,7 8,8 8 4 13 7 SW 1019,8 - 0,0
20.03.2017 21:00:00 10,9 9,2 8 5 26 14 W 1019,7 - 0,0
20.03.2017 20:00:00 11,4 9,0 21 11 32 17 NW 1019,3 12 0,0
20.03.2017 19:00:00 11,6 8,1 16 9 26 14 NW 1019,1 - 0,0
20.03.2017 18:00:00 12,0 7,5 20 11 27 15 NW 1018,9 - 0,0
20.03.2017 17:00:00 12,1 7,8 16 9 25 14 NNW 1018,7 20 0,0
20.03.2017 16:00:00 12,6 7,7 18 10 24 13 NW 1018,6 - 0,0
20.03.2017 15:00:00 12,7 7,6 10 6 18 10 NW 1018,6 - 0,0
20.03.2017 14:00:00 12,4 8,1 10 5 17 9 NNW 1018,7 - 0,0
20.03.2017 13:00:00 12,1 8,0 10 6 14 8 NNW 1018,7 - 0,0
20.03.2017 12:00:00 12,4 7,7 7 4 11 6 N 1018,4 - 0,0
20.03.2017 11:00:00 11,7 7,2 8 4 13 7 ESE 1018,1 - 0,0
20.03.2017 10:00:00 11,0 7,3 6 3 10 5 SE 1018,3 - 0,0
20.03.2017 09:00:00 - - - - - - - - - -

tt = Température de l'air
td = dewpoint
ff = Vitesse du vent
fx = gusts
dd = Direction du vent
ppp = reduced air pressure
vv = visibility
rr = Quantités de précipitations

stations d'obs. à proximité